Location: Rumah Geringgi
(3.1667°N, 113.1667°E)
Time: 21:46:41
(UTC+00:00)

Cosmos 1607 - Pass Details

Date: 03 August 2024
Orbit: 913 x 988 km, 65.0° (Epoch: 19 September)

Event Time Altitude Azimuth Distance (km) Brightness Sun altitude
Exits shadow 21:28:23 - 203° (SSW) 3,049 6.2 -14.5°
Reaches altitude 10° 21:29:21 10° 203° (SSW) 2,694 5.9 -14.3°
Maximum altitude 21:35:40 84° 290° (WNW) 982 4.0 -12.8°
Drops below altitude 10° 21:42:05 10° 19° (NNE) 2,728 6.9 -11.3°
Sets 21:44:40 0° 20° (NNE) 3,679 7.6 -10.7°
